[[{"header":{"parameterUnit":"m.s-1","parameterCategory":1,"la1":30.2991,"la2":30.254,"lo1":-89.0895,"lo2":-89.0444,"dy":0.0017,"dx":0.0017,"nx":28,"ny":28,"refTime":"2024-08-16T03:00:00:Z","depth":0,"parameterNumber":2,"parameterNumberName":"U-component_of_WINDS"},"data":[0,0,0,0,0,0,0,0,0,0,0,0,0,0,0,0,0,0,0,0,0,0,0,0,0,0,0,0,0,0,0,0,0,0,0,0,0,0,0,0,0,0,0,0,0,0,0,0,0,0,0,0,0,0,0,0,0,0,0.3753,0.3754,0,0.3853,0.3854,0.3855,0.3925,0.3925,0.3926,0.3927,0.4031,0.4033,0.4036,0,0,0,0,0,0,0,0,0,0,0,0,0,0.3623,0.3625,0.3753,0.3754,0.3755,0.3853,0.3854,0.3856,0.3925,0.3926,0.3926,0.3927,0.403,0.4033,0.4036,0,0,0,0,0,0,0,0,0,0,0,0,0,0.3696,0.3625,0.3752,0.3802,0.3807,0.3852,0.3854,0.3856,0.3925,0.3926,0.3926,0.3927,0.4029,0.4033,0.4036,0.4042,0,0,0.4047,0.4048,0,0,0,0,0,0,0,0,0.3692,0.3701,0.3793,0.3798,0.3804,0.3877,0.3847,0.3918,0.3925,0.388,0.3927,0.3927,0.3979,0.3987,0.4004,0.4046,0.4051,0.4047,0.4049,0.4051,0.4052,0,0,0,0,0,0,0,0.3687,0.3697,0.3792,0.3794,0.3801,0.3819,0.383,0.3861,0.3924,0.3884,0.3889,0.39,0.3983,0.4001,0.4007,0.4053,0.4047,0.405,0.4052,0.4053,0.4103,0.4103,0,0,0,0,0,0,0.3674,0.3693,0.3789,0.3795,0.3749,0.3821,0.3833,0.3853,0.3924,0.3936,0.3899,0.3903,0.3994,0.4003,0.4011,0.4021,0.4051,0.4054,0.4056,0.4104,0.4103,0.4103,0,0,0,0,0,0,0.3671,0.3682,0.3785,0.3745,0.376,0.3822,0.3844,0.3855,0.3873,0.3936,0.3947,0.3906,0.3995,0.4006,0.4033,0.4026,0.4055,0.4058,0.4105,0.4104,0.4103,0.4042,0,0,0,0,0,0,0.3667,0.368,0.3683,0.3745,0.3762,0.3805,0.3843,0.3856,0.3878,0.3884,0.3945,0.3956,0.3997,0.4028,0.4036,0.4031,0.4061,0.4106,0.4105,0.4103,0.4045,0.4039,0.4034,0,0,0,0,0,0.3662,0.3662,0.3683,0.3694,0.3766,0.3805,0.3814,0.3861,0.3877,0.388,0.3921,0.3954,0.4025,0.403,0.404,0.4036,0.4107,0.4105,0.4103,0.4048,0.404,0.4034,0,0,0,0,0,0,0.3599,0.3672,0.3695,0.3715,0.3753,0.3816,0.3822,0.3852,0.3886,0.389,0.3947,0.3961,0.3981,0.4012,0.4015,0.4045,0.407,0.407,0.4024,0.4018,0.4012,0.4005,0.4064,0,0,0,0,0,0.3587,0.3612,0.3674,0.3686,0.3704,0.3759,0.3778,0.381,0.3852,0.3869,0.3911,0.3951,0.3982,0.4002,0.4034,0.405,0.4064,0.4052,0.4047,0.4042,0.4041,0.4051,0.4047,0.4097,0.4097,0.4097,0,0,0.3564,0.3606,0.3619,0.3675,0.3708,0.3732,0.3772,0.3797,0.3816,0.3873,0.39,0.3932,0.3981,0.4002,0.4013,0.4027,0.403,0.404,0.4035,0.4038,0.4049,0.4044,0.404,0.4096,0.4096,0.4096,0,0,0.3533,0.3568,0.3581,0.3613,0.3663,0.3699,0.3702,0.3761,0.3784,0.3812,0.3855,0.3879,0.3932,0.3964,0.3987,0.3967,0.3999,0.3976,0.3948,0.3957,0.3953,0.3949,0.3942,0.3938,0.3976,0.3976,0.3976,0,0.3498,0.3536,0.3585,0.3606,0.3629,0.3681,0.3695,0.3724,0.3782,0.3796,0.3812,0.3878,0.3915,0.3943,0.3938,0.3956,0.3961,0.397,0.3949,0.3946,0.3944,0.3937,0.3934,0.3973,0.3973,0.3973,0.3974,0,0.349,0.3515,0.352,0.3573,0.3597,0.3615,0.3666,0.3685,0.3715,0.375,0.3778,0.3823,0.3864,0.3874,0.3904,0.3907,0.3914,0.3938,0.3965,0.3935,0.393,0.3928,0.3968,0.3969,0.397,0.3971,0,0,0.3423,0.3502,0.3503,0.3527,0.3585,0.3606,0.3625,0.3666,0.368,0.3718,0.3735,0.3778,0.3801,0.3827,0.3861,0.3869,0.3849,0.3893,0.3895,0.3883,0.3855,0.3835,0.3832,0.3871,0.387,0.387,0.385,0,0.3401,0.3438,0.3482,0.3505,0.3529,0.3578,0.3595,0.3632,0.3665,0.3691,0.3728,0.3757,0.3784,0.38,0.381,0.385,0.3845,0.3852,0.3888,0.3889,0.3874,0.3829,0.381,0.3789,0.3849,0.3848,0.3848,0,0.338,0.3414,0.3439,0.3493,0.3505,0.352,0.3559,0.3583,0.3626,0.365,0.3678,0.3714,0.3737,0.3761,0.3793,0.3797,0.3815,0.3836,0.3836,0.3842,0.3866,0.3833,0.3783,0.378,0.3845,0.3846,0.3846,0,0.3328,0.338,0.3402,0.3421,0.3485,0.3494,0.3521,0.3565,0.3586,0.3621,0.3635,0.3673,0.3693,0.3721,0.3766,0.3779,0.3794,0.3821,0.3814,0.3813,0.3815,0.3814,0.3767,0.3826,0.3826,0.3826,0.3826,0,0.3299,0.3312,0.3379,0.3392,0.3408,0.3458,0.3473,0.3504,0.3543,0.3563,0.3608,0.3626,0.3684,0.3709,0.3745,0.3766,0.3775,0.3795,0.3804,0.379,0.3788,0.3803,0.3805,0.3826,0.3826,0.3826,0.3826,0,0.3243,0.3289,0.3315,0.3373,0.3388,0.3397,0.3447,0.3462,0.3497,0.3522,0.353,0.3585,0.3617,0.3665,0.3711,0.3735,0.375,0.3765,0.3735,0.374,0.373,0.373,0.3691,0.3688,0.3749,0.3748,0.3747,0,0.3221,0.3232,0.3291,0.3308,0.3333,0.3359,0.338,0.343,0.345,0.35,0.3508,0.3543,0.3573,0.3621,0.3665,0.3701,0.3717,0.3701,0.3723,0.3708,0.3716,0.3715,0.3716,0.3695,0.3695,0.3694,0.3693,0,0.3178,0.3199,0.3228,0.3264,0.3288,0.3319,0.3352,0.3363,0.342,0.3441,0.3473,0.3496,0.3543,0.3576,0.3617,0.3646,0.3679,0.3686,0.3686,0.3672,0.3654,0.3663,0.372,0.3687,0.3687,0.3688,0.3688,0.3688,0.3138,0.315,0.3193,0.3223,0.3253,0.3283,0.3299,0.3335,0.3363,0.3404,0.3432,0.3462,0.3504,0.3562,0.3589,0.3614,0.3628,0.3628,0.3628,0.3627,0.3622,0.365,0.3621,0.3622,0.3622,0.3622,0.3622,0,0.3096,0.3126,0.3153,0.3198,0.3221,0.3249,0.3287,0.3305,0.3331,0.3367,0.3396,0.3432,0.3465,0.3511,0.3547,0.3558,0.3574,0.3565,0.3565,0.3571,0.3608,0.3604,0.3552,0.3552,0.3552,0.3552,0.3552,0.3552,0.3077,0.3098,0.3124,0.316,0.319,0.322,0.3239,0.3266,0.3295,0.3334,0.3361,0.339,0.3431,0.347,0.3501,0.3514,0.3525,0.3511,0.3529,0.3562,0.3568,0.3575,0.3571,0.3514,0.3513,0.349,0.349,0.349]},{"header":{"parameterUnit":"m.s-1","parameterCategory":1,"la1":30.2991,"la2":30.254,"lo1":-89.0895,"lo2":-89.0444,"dy":0.0017,"dx":0.0017,"nx":28,"ny":28,"refTime":"2024-08-16T03:00:00:Z","depth":0,"parameterNumber":3,"parameterNumberName":"V-component_of_WINDS"},"data":[0,0,0,0,0,0,0,0,0,0,0,0,0,0,0,0,0,0,0,0,0,0,0,0,0,0,0,0,0,0,0,0,0,0,0,0,0,0,0,0,0,0,0,0,0,0,0,0,0,0,0,0,0,0,0,0,0,0,1.9353,1.9353,0,1.9297,1.9297,1.9296,1.931,1.9312,1.9313,1.9314,1.9251,1.9248,1.9246,0,0,0,0,0,0,0,0,0,0,0,0,0,1.9468,1.9465,1.9353,1.9353,1.9352,1.9297,1.9297,1.9296,1.931,1.9312,1.9313,1.9314,1.9252,1.9249,1.9245,0,0,0,0,0,0,0,0,0,0,0,0,0,1.9415,1.9465,1.9354,1.9353,1.9352,1.9298,1.9297,1.9296,1.931,1.9312,1.9313,1.9315,1.9253,1.9249,1.9245,1.9186,0,0,1.9233,1.9231,0,0,0,0,0,0,0,0,1.9418,1.9411,1.9354,1.9353,1.9352,1.9313,1.9314,1.9259,1.9309,1.9326,1.9314,1.9316,1.927,1.9264,1.925,1.9183,1.9181,1.9232,1.923,1.9228,1.9227,0,0,0,0,0,0,0,1.9422,1.9414,1.9331,1.9353,1.9352,1.9353,1.9348,1.9304,1.9289,1.9324,1.9325,1.9319,1.927,1.9254,1.9249,1.918,1.9232,1.9229,1.9226,1.9225,1.906,1.9058,0,0,0,0,0,0,1.9427,1.9416,1.9333,1.9329,1.939,1.935,1.9344,1.9323,1.9289,1.9286,1.9317,1.932,1.926,1.9253,1.9247,1.9174,1.9228,1.9224,1.9222,1.9062,1.9059,1.9057,0,0,0,0,0,0,1.9429,1.9419,1.9335,1.9373,1.9363,1.9346,1.9323,1.9321,1.9306,1.9284,1.9281,1.9304,1.9261,1.9252,1.9201,1.9172,1.9222,1.9219,1.9064,1.9061,1.9058,1.9029,0,0,0,0,0,0,1.9432,1.942,1.9399,1.9373,1.9361,1.9292,1.9322,1.9319,1.9299,1.9302,1.9271,1.9268,1.9262,1.9207,1.9197,1.9167,1.9216,1.9067,1.9063,1.9059,1.9033,1.9026,1.902,0,0,0,0,0,1.9437,1.9392,1.9398,1.9387,1.9334,1.929,1.9283,1.9279,1.9297,1.9274,1.9261,1.9269,1.9177,1.9202,1.9191,1.9159,1.9068,1.9064,1.906,1.9036,1.9027,1.902,0,0,0,0,0,0,1.9413,1.9389,1.9395,1.9341,1.9318,1.9293,1.9264,1.927,1.924,1.9244,1.9238,1.9231,1.9178,1.9164,1.9191,1.91,1.9125,1.9118,1.9111,1.9102,1.9096,1.91,1.9212,0,0,0,0,0,1.9403,1.9371,1.935,1.9305,1.9293,1.9281,1.9262,1.926,1.9236,1.9225,1.9208,1.9182,1.9147,1.9124,1.9091,1.9031,1.9024,1.9004,1.8998,1.8993,1.8986,1.8951,1.8942,1.9043,1.9043,1.9043,0,0,1.9379,1.9361,1.9341,1.9299,1.9282,1.9247,1.9272,1.9235,1.9209,1.9219,1.917,1.9156,1.9126,1.907,1.9044,1.9056,1.8957,1.8987,1.8983,1.8979,1.8946,1.8936,1.8928,1.904,1.9041,1.9041,0,0,1.9317,1.9302,1.9261,1.9243,1.9216,1.9208,1.9199,1.9173,1.9165,1.9115,1.9122,1.909,1.9031,1.901,1.8991,1.8921,1.8927,1.8911,1.8876,1.8842,1.8834,1.8827,1.88,1.8791,1.8905,1.8905,1.8904,0,1.929,1.924,1.9239,1.9201,1.9182,1.9192,1.9149,1.9131,1.9094,1.908,1.9094,1.902,1.9001,1.8939,1.8922,1.8907,1.8894,1.8913,1.8836,1.8828,1.8822,1.8796,1.8786,1.8903,1.8903,1.8903,1.8903,0,1.9208,1.9173,1.9143,1.9108,1.9086,1.9046,1.9037,1.9014,1.9015,1.9005,1.8953,1.8931,1.8893,1.8879,1.8879,1.8816,1.8824,1.8838,1.8863,1.881,1.8786,1.8776,1.89,1.8901,1.8901,1.8902,0,0,1.9129,1.9095,1.9084,1.9067,1.9039,1.901,1.897,1.8935,1.8914,1.8888,1.8853,1.8803,1.8815,1.8793,1.8791,1.8762,1.8706,1.8778,1.8777,1.8764,1.8633,1.8621,1.861,1.871,1.8708,1.8707,1.8634,0,1.9063,1.8994,1.8992,1.8928,1.8894,1.8903,1.8868,1.8845,1.8835,1.8803,1.8792,1.8755,1.8775,1.8762,1.8733,1.8718,1.8679,1.8724,1.8674,1.8673,1.868,1.8598,1.8586,1.8519,1.8625,1.8624,1.8622,0,1.8977,1.895,1.8883,1.8858,1.8844,1.8812,1.8779,1.875,1.8724,1.8718,1.8694,1.8696,1.8653,1.8681,1.862,1.8651,1.8631,1.8621,1.8618,1.8611,1.8643,1.8587,1.8498,1.8487,1.8608,1.8609,1.861,0,1.8924,1.887,1.8823,1.8809,1.8779,1.8757,1.8743,1.8719,1.8697,1.8668,1.8653,1.8619,1.8599,1.8572,1.8563,1.8585,1.8502,1.853,1.8494,1.8494,1.8474,1.8475,1.8378,1.8465,1.8465,1.8465,1.8465,0,1.8849,1.8807,1.8798,1.8769,1.8721,1.8719,1.8671,1.8659,1.8638,1.8604,1.861,1.8578,1.8571,1.8537,1.853,1.848,1.8471,1.8464,1.8462,1.8462,1.8463,1.8447,1.8451,1.8462,1.8463,1.8463,1.8464,0,1.8781,1.8773,1.8722,1.8699,1.8692,1.8657,1.8636,1.8607,1.8598,1.8556,1.8546,1.853,1.8491,1.8481,1.8434,1.8429,1.8369,1.8372,1.8378,1.8377,1.8341,1.8343,1.8228,1.8212,1.8312,1.8311,1.831,0,1.8733,1.8701,1.8674,1.8653,1.8639,1.8605,1.8583,1.8579,1.8556,1.8524,1.8498,1.846,1.8429,1.8365,1.8349,1.8312,1.8313,1.8276,1.8308,1.8308,1.831,1.8311,1.8307,1.8269,1.8268,1.8267,1.8266,0,1.8648,1.8646,1.8615,1.8583,1.8558,1.8532,1.8507,1.8489,1.8481,1.8455,1.8415,1.8391,1.8344,1.8304,1.8268,1.8251,1.8256,1.8257,1.8246,1.8244,1.8248,1.8243,1.8359,1.8259,1.8259,1.826,1.826,1.8261,1.8586,1.8558,1.8535,1.85,1.8481,1.8458,1.8429,1.8417,1.8385,1.8346,1.8346,1.8302,1.8276,1.8227,1.8209,1.8173,1.8184,1.817,1.8165,1.8161,1.8157,1.8256,1.8167,1.8167,1.8167,1.8167,1.8168,0,1.85,1.8486,1.8454,1.842,1.8392,1.8402,1.8375,1.835,1.8313,1.8288,1.8258,1.8212,1.8174,1.8155,1.8117,1.8092,1.8094,1.8082,1.8083,1.8079,1.815,1.8162,1.8082,1.8082,1.8082,1.8082,1.8082,1.8082,1.8451,1.8403,1.8398,1.834,1.8326,1.8285,1.8268,1.8246,1.8226,1.8175,1.8144,1.8133,1.811,1.8071,1.8036,1.8031,1.8015,1.8002,1.7999,1.8065,1.8074,1.8082,1.8093,1.8,1.8,1.793,1.7929,1.7929]}]]